Weather History for Nome, AK

Change the Weather History Date:

Tuesday, April 16, 2013

  Actual Average Record
Temperature  
Mean Temperature 8 °F 21 °F  
Max Temperature 23 °F 27 °F 49 °F (1940)
Min Temperature -7 °F 14 °F -16 °F (1927)
Degree Days  
Heating Degree Days 57 45  
Month to date heating degree days 872 776  
Since 1 July heating degree days 12161 11754  
Cooling Degree Days 0    
Month to date cooling degree days 0  
Year to date cooling degree days 0  
Moisture  
Dew Point -3 °F    
Average Humidity 0    
Maximum Humidity 0    
Minimum Humidity 0    
Precipitation  
Precipitation 0.00 in 0.03 in 1.40 in (1915)
Month to date precipitation 0.25 0.38  
Year to date precipitation 2.41 2.90  
Snow  
Snow 0.00 in 0.20 in 5.20 in (2002)
Month to date snowfall 3.9 4.4  
Since 1 July snowfall 54.3 70.0  
Snow Depth 21.00 in    
Sea Level Pressure  
Sea Level Pressure 30.54 in    
Wind  
Wind Speed 1 mph (NW)    
Max Wind Speed 5 mph    
Max Gust Speed 7 mph    
Visibility 10 miles    
Events      
T = Trace of Precipitation, MM = Missing Value Source: NWS Daily Summary

Daily Weather History Graph

Daily Weather History Graph

Search for Another Location

Airport:

Trip Planner

Search our weather history database for the weather conditions in past years. The results will help you decide how hot, cold, wet, or windy it might be!

Date:

Astronomy

Apr. 16, 2013 Rise Set
Actual Time 7:22 AM AKDT 10:42 PM AKDT
Civil Twilight 6:25 AM AKDT 11:40 PM AKDT
Nautical Twilight 4:58 AM AKDT 1:09 AM AKDT
Astronomical Twilight Sun does not rise Sun does not rise
Moon 10:49 AM AKDT (4/16) 4:52 AM AKDT (4/16)
Length of Visible Light 17h 14m
Length of Day
15h 19m
Waxing Crescent, 34% of the Moon is Illuminated
Apr 16
Waxing Crescent
Apr 18
First Quarter
Apr 25
Full
May 2
Last Quarter
May 9
New

Hourly Weather History & Observations

Time (AKDT) Temp. Windchill Dew Point Humidity Pressure Visibility Wind Dir Wind Speed Gust Speed Precip Events Conditions
12:53 AM 1.0 °F - -7.1 °F 69% 30.64 in 10.0 mi Calm Calm - N/A   Clear
1:53 AM -0.9 °F -8.9 °F -7.1 °F 75% 30.64 in 10.0 mi WNW 3.5 mph - N/A   Clear
2:53 AM -2.0 °F -10.1 °F -8.0 °F 76% 30.63 in 10.0 mi NNE 3.5 mph - N/A   Clear
3:53 AM -2.0 °F - -8.0 °F 76% 30.61 in 10.0 mi Calm Calm - N/A   Clear
4:53 AM -4.0 °F - -11.0 °F 72% 30.60 in 10.0 mi Calm Calm - N/A   Clear
5:53 AM -5.1 °F - -11.0 °F 76% 30.60 in 10.0 mi Calm Calm - N/A   Clear
6:53 AM -4.0 °F - -9.9 °F 76% 30.58 in 10.0 mi Calm Calm - N/A   Clear
7:53 AM -6.0 °F - -13.0 °F 72% 30.58 in 10.0 mi Calm Calm - N/A   Partly Cloudy
8:53 AM -0.9 °F - -9.0 °F 69% 30.55 in 10.0 mi Calm Calm - N/A   Partly Cloudy
9:53 AM 3.9 °F - -7.1 °F 60% 30.55 in 10.0 mi Calm Calm - N/A   Partly Cloudy
10:53 AM 9.0 °F - -4.0 °F 56% 30.55 in 10.0 mi Calm Calm - N/A   Partly Cloudy
11:53 AM 15.1 °F - -0.0 °F 51% 30.54 in 10.0 mi Calm Calm - N/A   Partly Cloudy
12:53 PM 14.0 °F - 3.0 °F 62% 30.53 in 10.0 mi Calm Calm - N/A   Partly Cloudy
1:53 PM 16.0 °F 10.4 °F 3.0 °F 57% 30.52 in 10.0 mi SSE 3.5 mph - N/A   Partly Cloudy
2:53 PM 17.1 °F - 3.9 °F 56% 30.51 in 10.0 mi Calm Calm - N/A   Partly Cloudy
3:53 PM 19.0 °F 12.3 °F 3.9 °F 52% 30.51 in 10.0 mi SW 4.6 mph - N/A   Partly Cloudy
4:53 PM 21.0 °F - 1.9 °F 44% 30.50 in 10.0 mi Calm Calm - N/A   Partly Cloudy
5:53 PM 19.9 °F - 3.0 °F 48% 30.49 in 10.0 mi Calm Calm - N/A   Partly Cloudy
6:53 PM 21.9 °F - 3.0 °F 44% 30.49 in 10.0 mi Calm Calm - N/A   Scattered Clouds
7:53 PM 19.9 °F - 3.9 °F 50% 30.47 in 10.0 mi Calm Calm - N/A   Clear
8:53 PM 18.0 °F - 5.0 °F 57% 30.46 in 10.0 mi Calm Calm - N/A   Partly Cloudy
9:53 PM 12.0 °F - 3.0 °F 67% 30.46 in 10.0 mi Calm Calm - N/A   Partly Cloudy
10:53 PM 3.9 °F -5.3 °F -5.1 °F 66% 30.46 in 10.0 mi North 4.6 mph - N/A   Partly Cloudy
11:53 PM 3.9 °F - -4.0 °F 70% 30.46 in 10.0 mi Calm Calm - N/A   Scattered Clouds